Manistique, MI

5:54 PM EST on February 13, 2016 (GMT -0500)
Schoolcraft County

Weather History for KISQ - November, 2011

Change the Weather History Date:

Monday, November 7, 2011

  Actual Average Record
Temperature  
Mean Temperature 44 °F -  
Max Temperature 55 °F 43 °F 60 °F (1949)
Min Temperature 30 °F 27 °F 5 °F (1991)
Degree Days  
Heating Degree Days 22    
Moisture  
Dew Point 32 °F    
Average Humidity 60    
Maximum Humidity 87    
Minimum Humidity 25    
Precipitation  
Precipitation 0.00 in - - ()
Sea Level Pressure  
Sea Level Pressure 30.04 in    
Wind  
Wind Speed 9 mph (SW)    
Max Wind Speed 16 mph    
Max Gust Speed 29 mph    
Visibility 10 miles    
Events      
Averages and records for this station are not official NWS values.
T = Trace of Precipitation, MM = Missing Value Source: NWS Daily Summary

Daily Weather History Graph

Daily Weather History Graph

Search for Another Location

Airport or City:

Trip Planner

Search our weather history database for the weather conditions in past years. The results will help you decide how hot, cold, wet, or windy it might be!

Date:

Astronomy

Nov. 07, 2011 Rise Set
Actual Time 7:33 AM EST 5:22 PM EST
Civil Twilight 7:01 AM EST 5:54 PM EST
Nautical Twilight 6:25 AM EST 6:30 PM EST
Astronomical Twilight 5:51 AM EST 7:04 PM EST
Moon 3:39 PM EST (11/7) 4:28 AM EST (11/7)
Length of Visible Light 10h 52m
Length of Day
9h 49m
Waxing Gibbous, 91% of the Moon is Illuminated
Nov 7
Waxing Gibbous
Nov 10
Full
Nov 18
Last Quarter
Nov 25
New
Dec 2
First Quarter

Hourly Weather History & Observations

Time (EST) Temp. Windchill Dew Point Humidity Pressure Visibility Wind Dir Wind Speed Gust Speed Precip Events Conditions
12:15 AM 48.2 °F - 44.6 °F 87% 29.90 in 10.0 mi SW 11.5 mph 20.7 mph N/A   Clear
12:34 AM 48.2 °F - 44.6 °F 87% 29.91 in 10.0 mi SW 8.1 mph - N/A   Clear
12:54 AM 48.2 °F - 41.0 °F 76% 29.92 in 10.0 mi WSW 8.1 mph - N/A   Clear
1:15 AM 48.2 °F - 37.4 °F 66% 29.93 in 10.0 mi SW 9.2 mph - N/A   Clear
1:34 AM 48.2 °F - 35.6 °F 62% 29.94 in 10.0 mi SW 8.1 mph - N/A   Clear
1:54 AM 48.2 °F - 33.8 °F 58% 29.95 in 10.0 mi WSW 5.8 mph - N/A   Clear
2:15 AM 46.4 °F 44.3 °F 35.6 °F 66% 29.96 in 10.0 mi SW 4.6 mph - N/A   Clear
2:34 AM 46.4 °F 43.5 °F 35.6 °F 66% 29.97 in 10.0 mi SW 5.8 mph - N/A   Clear
2:55 AM 46.4 °F 41.9 °F 33.8 °F 62% 29.98 in 10.0 mi WSW 9.2 mph - N/A   Clear
3:14 AM 46.4 °F 43.5 °F 32.0 °F 57% 29.99 in 10.0 mi WSW 5.8 mph - N/A   Clear
3:35 AM 46.4 °F 44.3 °F 30.2 °F 53% 29.99 in 10.0 mi WSW 4.6 mph - N/A   Clear
3:54 AM 46.4 °F 45.2 °F 30.2 °F 53% 30.00 in 10.0 mi WSW 3.5 mph - N/A   Clear
4:14 AM 44.6 °F 42.2 °F 30.2 °F 57% 30.00 in 10.0 mi SW 4.6 mph - N/A   Clear
4:35 AM 44.6 °F 43.1 °F 32.0 °F 61% 30.00 in 10.0 mi SW 3.5 mph - N/A   Clear
4:54 AM 42.8 °F 39.3 °F 32.0 °F 66% 30.01 in 10.0 mi SW 5.8 mph - N/A   Clear
5:35 AM 44.6 °F 40.2 °F 33.8 °F 66% 30.01 in 10.0 mi SSW 8.1 mph - N/A   Clear
6:14 AM 44.6 °F 40.2 °F 33.8 °F 66% 30.02 in 10.0 mi SW 8.1 mph - N/A   Clear
6:35 AM 44.6 °F 40.2 °F 33.8 °F 66% 30.02 in 10.0 mi SW 8.1 mph - N/A   Clear
6:54 AM 44.6 °F 40.2 °F 33.8 °F 66% 30.02 in 10.0 mi SW 8.1 mph - N/A   Clear
7:14 AM 44.6 °F 38.8 °F 33.8 °F 66% 30.03 in 10.0 mi SSW 11.5 mph 17.3 mph N/A   Clear
7:34 AM 44.6 °F 39.7 °F 35.6 °F 71% 30.03 in 10.0 mi SW 9.2 mph - N/A   Clear
7:54 AM 44.6 °F 39.2 °F 39.2 °F 81% 30.04 in 10.0 mi SSW 10.4 mph - N/A   Clear
8:14 AM 44.6 °F 38.4 °F 39.2 °F 81% 30.04 in 10.0 mi SSW 12.7 mph - N/A   Clear
8:35 AM 44.6 °F 39.2 °F 39.2 °F 81% 30.04 in 10.0 mi SSW 10.4 mph - N/A   Clear
8:54 AM 46.4 °F 41.9 °F 39.2 °F 76% 30.05 in 10.0 mi SSW 9.2 mph - N/A   Clear
9:15 AM 46.4 °F 41.1 °F 39.2 °F 76% 30.05 in 10.0 mi SSW 11.5 mph - N/A   Clear
9:34 AM 48.2 °F - 37.4 °F 66% 30.05 in 10.0 mi SW 12.7 mph 19.6 mph N/A   Clear
10:15 AM 50.0 °F - 35.6 °F 58% 30.05 in 10.0 mi SSW 13.8 mph 19.6 mph N/A   Clear
10:34 AM 50.0 °F - 37.4 °F 62% 30.05 in 10.0 mi SSW 10.4 mph - N/A   Clear
10:54 AM 51.8 °F - 30.2 °F 44% 30.05 in 10.0 mi SSW 15.0 mph 20.7 mph N/A   Clear
11:15 AM 51.8 °F - 28.4 °F 41% 30.05 in 10.0 mi SW 11.5 mph 20.7 mph N/A   Clear
11:34 AM 53.6 °F - 26.6 °F 35% 30.05 in 10.0 mi SW 15.0 mph 23.0 mph N/A   Clear
11:54 AM 53.6 °F - 28.4 °F 38% 30.05 in 10.0 mi SW 11.5 mph 21.9 mph N/A   Clear
12:15 PM 53.6 °F - 23.0 °F 30% 30.05 in 10.0 mi SW 15.0 mph 23.0 mph N/A   Clear
12:34 PM 53.6 °F - 21.2 °F 28% 30.04 in 10.0 mi SW 13.8 mph 28.8 mph N/A   Clear
12:55 PM 53.6 °F - 23.0 °F 30% 30.05 in 10.0 mi SW 15.0 mph 20.7 mph N/A   Clear
1:14 PM 53.6 °F - 24.8 °F 33% 30.05 in 10.0 mi SW 10.4 mph 21.9 mph N/A   Clear
1:34 PM 53.6 °F - 21.2 °F 28% 30.05 in 10.0 mi SW 13.8 mph 24.2 mph N/A   Clear
1:55 PM 55.4 °F - 19.4 °F 25% 30.04 in 10.0 mi SW 16.1 mph 24.2 mph N/A   Clear
2:14 PM 53.6 °F - 19.4 °F 26% 30.04 in 10.0 mi SW 12.7 mph 21.9 mph N/A   Clear
2:34 PM 53.6 °F - 19.4 °F 26% 30.05 in 10.0 mi WSW 12.7 mph 19.6 mph N/A   Clear
2:55 PM 53.6 °F - 19.4 °F 26% 30.05 in 10.0 mi SW 10.4 mph 17.3 mph N/A   Clear
3:14 PM 53.6 °F - 21.2 °F 28% 30.05 in 10.0 mi SW 11.5 mph 18.4 mph N/A   Clear
3:34 PM 53.6 °F - 21.2 °F 28% 30.05 in 10.0 mi SW 10.4 mph 17.3 mph N/A   Clear
3:55 PM 51.8 °F - 35.6 °F 54% 30.06 in 10.0 mi SW 8.1 mph 16.1 mph N/A   Clear
4:14 PM 50.0 °F - 35.6 °F 58% 30.06 in 10.0 mi SW 8.1 mph - N/A   Clear
4:34 PM 50.0 °F - 35.6 °F 58% 30.06 in 10.0 mi SSW 8.1 mph - N/A   Clear
4:55 PM 48.2 °F - 35.6 °F 62% 30.06 in 10.0 mi South 6.9 mph - N/A   Clear
5:14 PM 46.4 °F 42.9 °F 35.6 °F 66% 30.07 in 10.0 mi SSW 6.9 mph - N/A   Clear
5:35 PM 44.6 °F 40.7 °F 37.4 °F 76% 30.08 in 10.0 mi SSW 6.9 mph - N/A   Clear
5:55 PM 44.6 °F 41.4 °F 37.4 °F 76% 30.10 in 10.0 mi SW 5.8 mph - N/A   Clear
6:14 PM 44.6 °F 42.2 °F 37.4 °F 76% 30.11 in 10.0 mi SSW 4.6 mph - N/A   Clear
6:54 PM 39.2 °F 35.9 °F 30.2 °F 70% 30.14 in 10.0 mi North 4.6 mph - N/A   Clear
7:14 PM 37.4 °F - 30.2 °F 75% 30.14 in 10.0 mi Calm Calm - N/A   Clear
7:34 PM 37.4 °F 34.9 °F 30.2 °F 75% 30.14 in 10.0 mi North 3.5 mph - N/A   Clear
7:54 PM 37.4 °F 33.8 °F 30.2 °F 75% 30.16 in 10.0 mi North 4.6 mph - N/A   Clear
8:15 PM 35.6 °F 32.8 °F 30.2 °F 81% 30.16 in 10.0 mi North 3.5 mph - N/A   Clear
8:34 PM 35.6 °F - 30.2 °F 81% 30.17 in 10.0 mi Calm Calm - N/A   Clear
9:15 PM 35.6 °F - 30.2 °F 81% 30.18 in 10.0 mi Calm Calm - N/A   Clear
9:34 PM 32.0 °F - 28.4 °F 87% 30.18 in 10.0 mi Calm Calm - N/A   Clear
9:54 PM 30.2 °F - 26.6 °F 86% 30.19 in 10.0 mi Calm Calm - N/A   Clear
10:14 PM 28.4 °F - 26.6 °F 93% 30.19 in 10.0 mi Calm Calm - N/A   Clear
10:34 PM 28.4 °F - 26.6 °F 93% 30.20 in 10.0 mi Calm Calm - N/A   Clear
10:54 PM 28.4 °F - 24.8 °F 86% 30.20 in 10.0 mi Calm Calm - N/A   Clear
11:14 PM 28.4 °F - 26.6 °F 93% 30.20 in 10.0 mi Calm Calm - N/A   Clear
11:35 PM 28.4 °F - 26.6 °F 93% 30.19 in 10.0 mi Calm Calm - N/A   Clear
11:54 PM 28.4 °F - 24.8 °F 86% 30.18 in 10.0 mi Calm Calm - N/A   Clear